This demonstration page uses our WeatherBlox Daily Observations layout. Learn more.

Hourly Observations for December 26, 2017

Temp ( °F °C ) Dew Point ( °F °C ) Humidity (%) Winds ( mph kmh ) Pressure ( in mb ) Visibility ( mi km ) Precip ( " mm )
12:15 am 00:15 Cloudy with Light Snow 5 -15 2 -16.6 88 88 NNE 7 11 30.68 1039 4 6.437376 0 0
12:35 am 00:35 Cloudy with Light Snow 5 -15.2 2 -16.9 87 87 N 9 15 30.71 1040 4 6.437376 0 0
12:55 am 00:55 Cloudy with Light Snow 4 -15.5 1 -17.2 87 87 N 12 19 30.71 1040 5 8.04672 0 0
1:15 am 01:15 Cloudy with Light Snow 4 -15.5 1 -17.1 88 88 NNE 13 20 30.68 1039 7 11.265408 0 0
1:35 am 01:35 Cloudy with Light Snow 4 -15.5 1 -17.3 86 86 N 10 17 30.71 1040 4 6.437376 0 0
1:55 am 01:55 Cloudy with Light Snow 4 -15.5 1 -17.2 87 87 NNE 9 15 30.68 1039 4 6.437376 0 0
2:15 am 02:15 Cloudy with Light Snow 4 -15.5 1 -17.5 85 85 NNE 8 13 30.68 1039 4 6.437376 0 0
2:35 am 02:35 Cloudy with Light Snow 4 -15.5 1 -17.3 86 86 NNE 9 15 30.71 1040 4 6.437376 0 0
2:55 am 02:55 Cloudy with Light Snow 4 -15.6 0 -17.7 84 84 NNE 13 20 30.71 1040 5 8.04672 0 0
3:15 am 03:15 Cloudy with Light Snow 4 -15.7 0 -17.8 84 84 NNE 9 15 30.71 1040 5 8.04672 0 0
3:35 am 03:35 Cloudy with Light Snow 3 -16 0 -18 85 85 NNE 12 19 30.71 1040 5 8.04672 0 0
3:55 am 03:55 Cloudy with Light Snow 3 -16 0 -18 85 85 NNE 13 20 30.71 1040 5 8.04672 0 0
4:15 am 04:15 Cloudy with Light Snow 3 -16 0 -18 85 85 NNE 12 19 30.71 1040 10 16.09344 0 0
4:35 am 04:35 Cloudy with Light Snow 3 -16 0 -18 85 85 NNE 10 17 30.71 1040 10 16.09344 0 0
4:55 am 04:55 Cloudy with Light Snow 3 -16 0 -18 85 85 N 12 19 30.74 1041 4 6.437376 0 0
5:15 am 05:15 Cloudy with Light Snow 3 -16.1 -1 -18.2 84 84 NNE 12 19 30.74 1041 5 8.04672 0 0
5:35 am 05:35 Cloudy with Light Snow 3 -16.2 -1 -18.1 85 85 NNE 9 15 30.74 1041 4 6.437376 0 0
5:55 am 05:55 Cloudy with Light Snow 3 -16.2 -1 -18.2 85 85 NNE 10 17 30.74 1041 7 11.265408 0 0
6:15 am 06:15 Cloudy 3 -16.2 -1 -18.2 85 85 NNE 10 17 30.74 1041 10 16.09344 0 0
6:35 am 06:35 Cloudy 3 -16.2 -1 -18.1 85 85 N 8 13 30.74 1041 10 16.09344 0 0
6:55 am 06:55 Cloudy with Light Snow 3 -16.1 -1 -18.1 85 85 NNE 9 15 30.74 1041 5 8.04672 0 0
7:15 am 07:15 Cloudy with Light Snow 3 -16.1 0 -18 85 85 NNE 8 13 30.74 1041 3 4.828032 0 0
7:35 am 07:35 Cloudy with Light Snow 3 -16.2 0 -18 86 86 NNE 8 13 30.74 1041 4 6.437376 0 0
7:55 am 07:55 Cloudy 3 -16.1 0 -18 85 85 N 8 13 30.77 1042 10 16.09344 0 0
8:15 am 08:15 Cloudy 3 -16 0 -18 85 85 NNE 7 11 30.77 1042 10 16.09344 0 0
8:35 am 08:35 Cloudy 3 -16 0 -18 85 85 NNE 8 13 30.77 1042 10 16.09344 0 0
8:55 am 08:55 Cloudy 3 -16 -1 -18.2 83 83 NNE 8 13 30.77 1042 10 16.09344 0 0
9:15 am 09:15 Cloudy 3 -16 -1 -18.2 83 83 NNE 6 9 30.77 1042 10 16.09344 0 0
9:35 am 09:35 Cloudy 3 -15.9 -1 -18.2 83 83 NNE 8 13 30.77 1042 10 16.09344 0 0
9:55 am 09:55 Cloudy 4 -15.7 -1 -18.2 81 81 NNE 6 9 30.8 1043 10 16.09344 0 0
10:15 am 10:15 Cloudy 4 -15.5 -1 -18.2 80 80 N 6 9 30.8 1043 10 16.09344 0 0
10:35 am 10:35 Partly Cloudy 4 -15.5 -1 -18.2 80 80 NNE 7 11 30.8 1043 10 16.09344 0 0
10:55 am 10:55 Partly Cloudy 4 -15.5 -1 -18.5 78 78 N 6 9 30.8 1043 10 16.09344 0 0
11:15 am 11:15 Mostly Cloudy 3 -16 -2 -18.7 80 80 N 6 9 30.83 1044 10 16.09344 0 0
11:35 am 11:35 Partly Cloudy 3 -16.1 -2 -18.9 79 79 NNE 3 6 30.83 1044 10 16.09344 0 0
11:55 am 11:55 Mostly Cloudy 3 -16.2 -2 -19 79 79 Calm 30.83 1044 10 16.09344 0 0
12:15 pm 12:15 Cloudy 4 -15.5 -1 -18.5 78 78 Calm 30.8 1043 10 16.09344 0 0
12:35 pm 12:35 Cloudy 4 -15.4 -1 -18.6 77 77 Calm 30.8 1043 10 16.09344 0 0
12:55 pm 12:55 Mostly Cloudy 5 -15.2 -1 -18.6 75 75 Calm 30.77 1042 10 16.09344 0 0
1:15 pm 13:15 Mostly Cloudy 5 -15 -1 -18.6 74 74 Calm 30.77 1042 10 16.09344 0 0
1:35 pm 13:35 Partly Cloudy 5 -15 -1 -18.5 75 75 Calm 30.77 1042 10 16.09344 0 0
1:55 pm 13:55 Mostly Cloudy 5 -15 -1 -18.5 75 75 NNE 3 6 30.74 1041 10 16.09344 0 0
2:15 pm 14:15 Mostly Cloudy 5 -14.8 -1 -18.6 73 73 Calm 30.77 1042 10 16.09344 0 0
2:35 pm 14:35 Partly Cloudy 5 -14.8 -1 -18.5 74 74 NNE 3 6 30.77 1042 10 16.09344 0 0
2:55 pm 14:55 Partly Cloudy 6 -14.7 -1 -18.5 73 73 Calm 30.77 1042 10 16.09344 0 0
3:15 pm 15:15 Partly Cloudy 6 -14.7 -1 -18.5 73 73 Calm 30.77 1042 10 16.09344 0 0
3:35 pm 15:35 Mostly Cloudy 5 -15 -2 -18.7 74 74 Calm 30.77 1042 10 16.09344 0 0
3:55 pm 15:55 Mostly Cloudy 5 -14.8 -1 -18.4 74 74 NNE 5 7 30.77 1042 10 16.09344 0 0
4:15 pm 16:15 Mostly Cloudy 5 -14.8 -1 -18.5 74 74 Calm 30.77 1042 10 16.09344 0 0
4:35 pm 16:35 Cloudy 5 -15 -1 -18.3 76 76 Calm 30.77 1042 10 16.09344 0 0
4:55 pm 16:55 Mostly Cloudy 4 -15.5 -1 -18.5 78 78 Calm 30.77 1042 10 16.09344 0 0
5:15 pm 17:15 Cloudy 4 -15.5 -1 -18.3 79 79 Calm 30.77 1042 10 16.09344 0 0
5:35 pm 17:35 Cloudy 4 -15.8 -1 -18.3 81 81 Calm 30.77 1042 10 16.09344 0 0
5:55 pm 17:55 Mostly Cloudy 2 -16.5 -2 -19 81 81 NE 3 6 30.8 1043 10 16.09344 0 0
6:15 pm 18:15 Partly Cloudy 1 -17.5 -3 -19.6 84 84 Calm 30.83 1044 10 16.09344 0 0
6:35 pm 18:35 Partly Cloudy -2 -18.7 -5 -20.5 86 86 NE 3 6 30.86 1045 10 16.09344 0 0
6:55 pm 18:55 Partly Cloudy -2 -19 -5 -20.6 87 87 Calm 30.86 1045 10 16.09344 0 0
7:15 pm 19:15 Clear -3 -19.5 -6 -20.9 89 89 Calm 30.86 1045 10 16.09344 0 0
7:35 pm 19:35 Clear -2 -19 -4 -20.1 91 91 Calm 30.86 1045 10 16.09344 0 0
7:55 pm 19:55 Clear -4 -20.1 -6 -21.3 90 90 Calm 30.86 1045 10 16.09344 0 0
8:15 pm 20:15 Clear -3 -19.3 -5 -20.5 90 90 Calm 30.89 1046 10 16.09344 0 0
8:35 pm 20:35 Clear -5 -20.4 -7 -21.9 88 88 Calm 30.89 1046 10 16.09344 0 0
8:55 pm 20:55 Clear -6 -21.2 -9 -22.9 86 86 Calm 30.92 1047 10 16.09344 0 0
9:15 pm 21:15 Clear -9 -22.5 -12 -24.4 85 85 Calm 30.92 1047 10 16.09344 0 0
9:35 pm 21:35 Partly Cloudy -8 -22.1 -11 -24 85 85 Calm 30.92 1047 10 16.09344 0 0
9:55 pm 21:55 Clear -8 -22 -11 -23.9 85 85 Calm 30.92 1047 10 16.09344 0 0
10:15 pm 22:15 Clear -9 -22.8 -13 -24.9 83 83 Calm 30.92 1047 10 16.09344 0 0
10:35 pm 22:35 Clear -7 -21.7 -10 -23.4 86 86 Calm 30.92 1047 10 16.09344 0 0
10:55 pm 22:55 Clear -4 -20.2 -7 -21.8 87 87 S 3 6 30.89 1046 10 16.09344 0 0
11:15 pm 23:15 Clear -8 -22.1 -11 -24.1 84 84 Calm 30.92 1047 10 16.09344 0 0
11:35 pm 23:35 Clear -8 -22.1 -11 -23.9 85 85 Calm 30.92 1047 10 16.09344 0 0
11:55 pm 23:55 Clear -6 -21.3 -9 -22.9 87 87 SSE 5 7 30.92 1047 10 16.09344 0 0

Powered by AerisWeather